Minneapolis, MN

6:40 PM CST on February 07, 2016 (GMT -0600)
Andar's | | Change Station
CLOSE
Current Station
Personal Weather Station
Location: Fridley, MN
Elevation: 899 ft
Nearby Weather Stations
Active Advisory: Winter Weather Advisory Active Notice: Public Information Statement

Elev 899 ft 45.10 °N, 93.24 °W | Updated 13 seconds ago

Snow
Snow
27.5 °F
Feels Like 22 °F
N
5.0
Wind Variable Wind from West
Gusts 11.0 mph

Today
High -- | Low -- °F
--% Chance of Precip.
Yesterday
High -- | Low -- °F
Precip. -- in
Pressure 29.67 in
Visibility 2.0 miles
Clouds Scattered Clouds 2200 ft
Windchill 22 °F
Dew Point 27 °F
Humidity 99%
Rainfall 0.00 in
Snow Depth Not available.
7:26 AM 5:28 PM
Waning Crescent, 0% visible
METAR KANE 072345Z 31021G25KT 2SM -SN SCT022 0VC065 01/M03 A2967
Pressure 29.67 in
Visibility 2.0 miles
Clouds Scattered Clouds 2200 ft
Windchill 22 °F
Dew Point 27 °F
Humidity 99%
Rainfall 0.00 in
Snow Depth Not available.
7:26 AM 5:28 PM
Waning Crescent, 0% visible
METAR KANE 072345Z 31021G25KT 2SM -SN SCT022 0VC065 01/M03 A2967

10-Day Weather Forecast

Almanac

Astronomy

Feb. 07, 2016 Rise Set
Actual Time
Civil Twilight
Nautical Twilight
Astronomical Twilight
Moon
Length of Visible Light
Length of Day
Tomorrow will be .
, % of the Moon is Illuminated

Today's Extremes

State Highs State Lows

Community

WunderPhotos

Upload Photos

1,891,340 photos uploaded!

WunderBlog® & News

Nearby

Air Quality

  Air Quality AQ Index Pollutant
Not available.

Snow Depth

Station Depth Elevation

Earthquake Activity

City Distance Mag. Time & Date
Minimum magnitude displayed is 2.5.

Coastal Water Temperatures

Place Temperature

Stations

Nearby Weather Stations

Station Location Temp. Windchill Dew Point Humidity Wind Precip. Elev Updated Type
                   

Watches & Warnings

Winter Weather Advisory
Issued: 12:59 PM CST Feb. 7, 2016 – National Weather Service

... Winter Weather Advisory remains in effect from 7 PM this
evening to noon CST Monday...

A Winter Weather Advisory remains in effect from 7 PM this
evening to noon CST Monday.

* Expect snow to develop around 7 PM and then diminish around
noon Monday.

* Total snow accumulations of up to 1 inch are expected.

* Winds gusting as high as 40 mph will cause widespread blowing
and drifting snow.

* Plan on slippery Road conditions.

Precautionary/preparedness actions...

A Winter Weather Advisory for snow means periods of snow will
cause primarily travel difficulties. Be prepared for snow covered
roads and limited visibilities... and use caution while driving.
The latest Road conditions for the state you are calling from can
be obtained by calling 5 1 1.


Jlt